Flag for United Kingdom Weather past 2 weeks in Southampton, England, United Kingdom

Now
59 °F

Clear.


Feels Like: 59 °F
Forecast: 59 / 80 °F
Wind: 5 mph from North

Location: Bournemouth Airport

Current Time: Jul 25, 2014 at 4:55:33 AM

Latest Report: Jul 25, 2014 at 4:20 AM


Visibility: 10 mi

Pressure: 30.01 "Hg

Humidity: 82%

Dew point: 54 °F

Location of SouthamptonLocation

Historic Weather in Southampton — Graph

°F

Southampton temperature yesterday

Maximum temperature yesterday: 84 °F (at 1:20 PM)
Minimum temperature yesterday: 63 °F (at 5:20 AM)
Average temperature yesterday: 74 °F

Past Weeks' High & Low Weather Summary

 TemperatureHumidityPressure
High84 °F (Jul 22, 3:20 PM)100% (Jul 12, 3:20 AM)30.21 "Hg (Jul 12, 3:20 AM)
Low50 °F (Jul 14, 4:50 AM)35% (Jul 22, 5:20 PM)29.71 "Hg (Jul 19, 5:20 PM)
Average69 °F69%30.00 "Hg
* Reported Jul 10 4:50 AM — Jul 25 3:50 AM, Southampton, Weather by CustomWeather, © 2014

Note: Actual official high and low records may vary slightly from our data, if they occured in-between our weather recording intervals... More about our weather records

Advertising

Southampton weather history for previous 24 hours

 ConditionsComfort  
Time TempWeatherWind HumidityBarometerVisibility
3:50 AM
Jul 25
59 °FClear.7 mph82%30.01 "Hg10 mi
3:20 AM61 °FClear.7 mph77%30.01 "Hg10 mi
2:50 AM59 °FClear.6 mph88%30.01 "Hg10 mi
2:20 AM59 °FClear.5 mph82%30.04 "Hg10 mi
1:50 AM61 °FClear.5 mph88%30.04 "Hg10 mi
1:20 AM61 °FClear.3 mph88%30.04 "Hg10 mi
11:20 PM
Jul 24
66 °FClear.5 mph83%30.04 "Hg10 mi
10:50 PM68 °FClear.5 mph73%30.04 "Hg10 mi
10:20 PM70 °FClear.1 mph69%30.01 "Hg10 mi
9:50 PM70 °FSunny.2 mph69%30.01 "Hg10 mi
9:20 PM73 °FSunny.5 mph61%30.01 "Hg10 mi
8:50 PM73 °FSunny.6 mph61%30.01 "Hg10 mi
8:20 PM75 °FSunny.6 mph57%29.98 "Hg10 mi
7:50 PM79 °FSunny.8 mph48%29.98 "Hg10 mi
7:20 PM79 °FSunny.6 mph48%29.98 "Hg10 mi
6:50 PM79 °FSunny.7 mph48%29.98 "Hg10 mi
6:20 PM81 °FSunny.7 mph45%29.98 "Hg10 mi
5:50 PM81 °FPassing clouds.8 mph45%29.98 "HgN/A
5:20 PM81 °FPassing clouds.6 mph45%29.98 "HgN/A
4:50 PM82 °FPassing clouds.8 mph45%29.98 "HgN/A
4:20 PM84 °FScattered clouds.9 mph43%29.98 "HgN/A
3:50 PM84 °FScattered clouds.5 mph40%29.98 "HgN/A
3:20 PM82 °FScattered clouds.7 mph42%29.98 "HgN/A
2:50 PM82 °FPassing clouds.7 mph42%29.98 "HgN/A
2:20 PM82 °FPassing clouds.8 mph40%29.98 "HgN/A
1:50 PM84 °FPassing clouds.10 mph43%30.01 "HgN/A
1:20 PM84 °FPassing clouds.10 mph43%30.01 "HgN/A
12:50 PM82 °FPassing clouds.9 mph48%30.01 "HgN/A
12:20 PM81 °FPassing clouds.12 mph51%30.01 "HgN/A
11:50 AM81 °FSunny.12 mph51%30.01 "Hg10 mi
11:20 AM79 °FSunny.13 mph54%30.01 "Hg10 mi
10:50 AM77 °FSunny.12 mph57%30.01 "Hg10 mi
10:20 AM75 °FPassing clouds.12 mph61%30.01 "HgN/A
9:50 AM73 °FSunny.12 mph61%30.01 "Hg10 mi
9:20 AM72 °FSunny.12 mph69%30.01 "Hg10 mi
8:50 AM70 °FSunny.13 mph69%30.01 "Hg10 mi
8:20 AM68 °FSunny.13 mph69%30.01 "Hg10 mi
7:50 AM66 °FSunny.12 mph73%30.01 "Hg10 mi
7:20 AM66 °FSunny.10 mph73%30.01 "Hg10 mi
6:20 AM63 °FClear.10 mph77%30.01 "Hg10 mi
5:50 AM63 °FClear.5 mph77%30.01 "Hg10 mi
5:20 AM63 °FClear.6 mph83%30.01 "Hg10 mi
4:50 AM64 °FClear.5 mph78%30.01 "Hg10 mi
Weather by CustomWeather, © 2014

See weather overviewHow to use our weather pages